AirNav   Everest Fuels
 
 1607 users online  

35MN Wipline Airport
Inver Grove Heights, Minnesota, USA

GOING TO INVER GROVE HEIGHTS?


FAA INFORMATION EFFECTIVE 25 MARCH 2021

Location

FAA Identifier: 35MN
Lat/Long: 44-48-55.8790N 093-00-48.7690W
44-48.931317N 093-00.812817W
44.8155219,-93.0135469
(estimated)
Elevation: 687 ft. / 209 m (estimated)
Variation: 03E (1985)
From city: 2 miles SE of INVER GROVE HEIGHTS, MN
Time zone: UTC -5 (UTC -6 during Standard Time)
Zip code: 55077

Airport Operations

Airport use: Private use. Permission required prior to landing
Activation date: 02/1978
Control tower: no
ARTCC: MINNEAPOLIS CENTER
FSS: PRINCETON FLIGHT SERVICE STATION
Attendance: UNATNDD
Wind indicator: yes
Segmented circle: no

Airport Communications

WX AWOS-3 at SGS (2.6 nm N): 119.425 (651-457-8120)
WX ASOS at STP (7 nm N): 118.35 (651-312-8888)
WX ASOS at MSP (10 nm NW): 135.35 (612-713-4174)
WX AWOS-3 at 21D (13 nm NE): 120.075 (651-779-5949)
WX AWOS-3 at LVN (15 nm SW): 118.0 (952-469-5850)
WX ASOS at FCM (19 nm W): 124.9 (952-941-4156)

Nearby radio navigation aids

VOR radial/distance  VOR name  Freq  Var
MSPr115/10.7MINNEAPOLIS VOR/DME115.3002E
FGTr027/13.2FARMINGTON VORTAC115.7006E
FCMr091/18.3FLYING CLOUD VOR/DME117.7001E
GEPr136/25.0GOPHER VORTAC117.3006E
FOWr021/39.7HALFWAY VOR/DME111.2002E

Airport Services

Runway Information

Runway 3/21

Dimensions: 2300 x 150 ft. / 701 x 46 m
Surface: turf
RUNWAY 3  RUNWAY 21
Traffic pattern: leftleft

Airport Ownership and Management from official FAA records

Ownership: Privately-owned
Owner: ROBERT WIPLINGER
9100 RIVER ROAD
INVER GROVE HTS, MN 55075
Phone (612) 867-6160
Manager: ROBERT WIPLINGER
9100 RIVER ROAD
INVER GROVE HTS, MN 55075
Phone (612) 867-6160
CELL: 612-867-6160

Airport Operational Statistics

Aircraft based on the field: 5
Single engine airplanes: 5
    

Additional Remarks

FOR CD CTC MINNEAPOLIS ARTCC AT 651-463-5588.

Instrument Procedures

There are no published instrument procedures at 35MN.

Some nearby airports with instrument procedures:

KSGS - South St Paul Municipal Airport-Richard E Fleming Field (3 nm N)
KSTP - St Paul Downtown Airport Holman Field (7 nm N)
KMSP - Minneapolis-St Paul International/Wold-Chamberlain Airport (10 nm NW)
21D - Lake Elmo Airport (13 nm NE)
KLVN - Airlake Airport (15 nm SW)
KFCM - Flying Cloud Airport (19 nm W)
 
Loc | Ops | Rwys | IFR | FBO | Links
Com | Nav | Svcs | Stats | Notes
Area around 35MN (Wipline Airport)
 
Road maps at: MapQuest Bing Google
 
Aerial photo
No photo
 
Sectional chart

 
Airport distance calculator
Flying to Wipline Airport? Find the distance to fly.

From to 35MN

Sunrise and sunset
Times for 21-Apr-2021
 Local
(UTC-5)
 Zulu
(UTC)
Morning civil twilight05:4710:47
Sunrise06:1811:18
Sunset20:0301:03
Evening civil twilight20:3401:34

Current date and time
Zulu (UTC)  21-Apr-2021 20:43:31
Local (UTC-5)  21-Apr-2021 15:43:31
 
METAR
KSGS 
6nm W 
212015Z AUTO 31012KT 10SM SCT055 SCT080 05/M09 A3012 RMK AO2 T00471088
KSTP 
7nm N 
211953Z 29012G20KT 10SM BKN065 OVC080 05/M09 A3014 RMK AO2 SLP210 T00501094
KMSP 
10nm NW 
211953Z 29012G17KT 10SM BKN055 OVC070 04/M08 A3013 RMK AO2 SLP213 T00391078
K21D 
13nm NE 
212008Z AUTO 27009KT 10SM BKN065 04/M09 A3012 RMK AO2
KLVN 
15nm SW 
212015Z AUTO 32012KT 10SM SCT050 SCT070 04/M09 A3012 RMK AO2
KFCM 
19nm W 
211953Z 27009G19KT 10SM FEW049 SCT065 OVC075 05/M07 A3012 RMK AO2 SLP208 T00501072
TAF
KMSP 
10nm NW 
211726Z 2118/2224 32011G16KT P6SM BKN060 TEMPO 2118/2122 6SM -SHRASN BKN035 FM220000 29005KT P6SM FEW080 FM220600 23005KT P6SM SKC FM221700 24009G16KT P6SM SKC
NOTAMs
Click for the latest NOTAMs
NOTAMs are issued by the DoD/FAA and will open in a separate window not controlled by AirNav.

 

 
 

Would you like to see your business listed on this page?

 If your business provides an interesting product or service to pilots, flight crews, aircraft, or users of the Wipline Airport, you should consider listing it here.  To start the listing process, click on the button below
 
Add a business
 

Other Pages about Wipline Airport

Update a link
 
Copyright © AirNav, LLC. All rights reserved. Privacy Policy  Contact